TimeCDT,TemperatureF,Dew PointF,Humidity,Sea Level PressureIn,VisibilityMPH,Wind Direction,Wind SpeedMPH,Gust SpeedMPH,PrecipitationIn,Events,Conditions,WindDirDegrees,DateUTC
12:53 AM,77.0,73.0,88,29.92,9.0,Calm,Calm,-,N/A,,Clear,0,2013-09-02 05:53:00
1:53 AM,75.9,73.0,91,29.92,8.0,WNW,4.6,-,N/A,,Clear,300,2013-09-02 06:53:00
2:53 AM,78.1,73.9,87,29.91,10.0,Calm,Calm,-,N/A,,Clear,0,2013-09-02 07:53:00
3:53 AM,77.0,73.9,90,29.91,9.0,Calm,Calm,-,N/A,,Clear,0,2013-09-02 08:53:00
4:53 AM,77.0,73.9,90,29.92,10.0,Calm,Calm,-,N/A,,Clear,0,2013-09-02 09:53:00
5:53 AM,75.0,73.0,94,29.93,9.0,Calm,Calm,-,N/A,,Clear,0,2013-09-02 10:53:00
6:53 AM,75.0,73.0,94,29.95,9.0,Calm,Calm,-,N/A,,Clear,0,2013-09-02 11:53:00
7:53 AM,79.0,73.9,84,29.96,10.0,NW,4.6,-,N/A,,Clear,320,2013-09-02 12:53:00
8:53 AM,82.9,73.0,72,29.97,10.0,WNW,6.9,-,N/A,,Clear,290,2013-09-02 13:53:00
9:53 AM,86.0,72.0,63,29.98,10.0,West,8.1,56.4,N/A,,Clear,270,2013-09-02 14:53:00
10:53 AM,88.0,73.0,61,29.98,10.0,West,6.9,-,N/A,,Clear,280,2013-09-02 15:53:00
11:53 AM,90.0,73.0,57,29.99,10.0,West,3.5,-,N/A,,Partly Cloudy,280,2013-09-02 16:53:00
12:53 PM,91.0,72.0,53,29.97,10.0,West,5.8,-,N/A,,Mostly Cloudy,280,2013-09-02 17:53:00
1:53 PM,93.0,73.0,52,29.93,10.0,NW,4.6,-,N/A,,Scattered Clouds,320,2013-09-02 18:53:00
2:53 PM,93.0,72.0,50,29.89,10.0,Variable,4.6,-,N/A,,Scattered Clouds,0,2013-09-02 19:53:00
3:53 PM,91.9,72.0,52,29.87,10.0,NNW,4.6,-,N/A,,Mostly Cloudy,340,2013-09-02 20:53:00
4:53 PM,93.0,71.1,49,29.88,10.0,West,3.5,-,N/A,,Partly Cloudy,280,2013-09-02 21:53:00
5:53 PM,91.9,71.1,50,29.87,10.0,WSW,5.8,-,N/A,,Mostly Cloudy,240,2013-09-02 22:53:00
6:53 PM,84.9,71.1,63,29.89,10.0,NNW,3.5,-,N/A,,Clear,340,2013-09-02 23:53:00
7:53 PM,82.0,72.0,71,29.89,10.0,Calm,Calm,-,N/A,,Clear,0,2013-09-03 00:53:00
8:53 PM,80.1,73.0,79,29.91,10.0,Calm,Calm,-,N/A,,Clear,0,2013-09-03 01:53:00
9:53 PM,79.0,73.0,82,29.92,10.0,Calm,Calm,-,N/A,,Clear,0,2013-09-03 02:53:00
10:53 PM,79.0,72.0,79,29.93,10.0,Calm,Calm,-,N/A,,Clear,0,2013-09-03 03:53:00
11:53 PM,80.1,73.9,81,29.92,10.0,SW,6.9,-,N/A,,Clear,220,2013-09-03 04:53:00